Showing default

CAS500-2, 69013

Orbit data source: Space-Track

CAS500-2, 69013 is a payload satellite owned by KAIST (KR) in SSO that was launched on Sun, 03 May 2026 UTC via an FALCON 9 launch vehicle from the Air Force Western Test Range (AFWTR). Payload-class satellites include a variety of spacecraft equipped with specific instruments for various scientific and technological missions. These include communications satellites like Starlink; space stations such as the ISS; scientific satellites like the Hubble; Earth observation satellites from companies like Planet Labs, Umbra, and HawkEye 360; GPS; miniature CubeSats for education and research; and military/defense satellites.

Loading next visibility...
Identifier
69013, 2026-100AK
Orbit
SSO
Country
Flag of KRKR / SKOR
Related business
Manufacturer
SatRec Initiative
Mission
Operational spacecraft
Bus & Motor
CAS500, Unknown motor
Mass
516 kg wet, 516 kg dry
Launch date (UTC)
2026-05-03 (2 months ago)
Launch vehicle
FALCON 9
Launch site
Air Force Western Test Range (AFWTR)
Object type
Payload
Rocket body
Debris
Shape & HBR
Unknown shape, 14.5 m
Radar Cross Section
Large (>1 m²)

Expand to show TLE details & history
Last TLE update: 19 hours ago

TLE from 19 hours ago
0 CAS500-2
1 69013U 26100AK  26174.99585502  .00005114  00000-0  23581-3 0  9994
2 69013  97.4073  72.7333 0009962  13.7472 346.4033 15.20656354  7845
Epoch: 2026-06-23T23:54Z
TLE epoch observation values (Epoch: 2026-06-23T23:54:01.873Z)
Latitude
-0.00002°
Longitude
162.06608°
Altitude
500.286 km
Speed
7.618 km/s
True Right ascension
04h 50m 55s
True Declination
0° 00' 00"
Sunlit
Object was in daylight at epoch
Visualization orbit readout
Latitude
Unknown
Longitude
Unknown
Altitude
Unknown
Speed
Unknown
Apparent Right ascension
Unknown
Apparent Declination
Unknown
Sunlit
N/A
Visualization observer readout
Local Sidereal Time
06:02:20
Azimuth
Unknown
Elevation
Unknown
Doppler factor
Unknown
Orbital elements
Apogee altitude
507.677 km
Perigee altitude
493.972 km
Semi-major axis
6,878.962 km
Eccentricity
0.001
Inclination
97.4073°
RAAN
72.7333°
Arg. of periapsis
13.7472°
True anomaly
346.37643°
Mean anomaly
346.4033°
Eccentric anomaly
346.38987°
Mean motion
3.80416 °/min
Orbital period
94.63 mins
BSTAR
0.00023581
Loading maneuver chart data...
Computing Atmospheric mass density...
Loading historical data...
Loading historical data...
Loading historical data...
Loading historical data...
Loading historical data...
Loading historical data...
Loading historical data...

Documentation

Showing up to 5 results
|